Tracking 30995 objects as of 5-Jul-2025
HD Live streaming from Space Station
objects crossing your sky now

STARLINK-5841

Track STARLINK-5841 now!
10-day predictions
STARLINK-5841 is classified as:


NORAD ID: 56493
Int'l Code: 2023-064AX
Perigee: 577.1 km
Apogee: 581.3 km
Inclination: 70.0 °
Period: 96.1 minutes
Semi major axis: 6950 km
RCS: Unknown
Launch date: May 10, 2023
Source: United States (US)
Launch site: AIR FORCE WESTERN TEST RANGE (AFWTR)
Your satellite tracking list
STARLINK-33630
Track 1 satellite(s)




NASA's NSSDC Master Catalog

Two Line Element Set (TLE):
1 56493U 23064AX  25186.60158333  .00000466  00000-0  46851-4 0  9997
2 56493  70.0003 347.4678 0002976 267.1929  92.8889 14.98331307119710
Source of the keplerian elements: AFSPC